Weather History for KODO - November, 2012

Change the Weather History Date:

Sunday, November 18, 2012

  Actual Average (KMAF) Record (KMAF)
Temperature  
Mean Temperature 58 °F 52 °F  
Max Temperature 64 °F 66 °F 84 °F (1999)
Min Temperature 53 °F 38 °F 19 °F (1980)
Degree Days  
Heating Degree Days 6 13  
Month to date heating degree days 180  
Since 1 July heating degree days 289  
Growing Degree Days 8 (Base 50)    
Moisture  
Dew Point 47 °F    
Average Humidity 68    
Maximum Humidity 83    
Minimum Humidity 56    
Precipitation  
Precipitation 0.00 in 0.02 in 0.60 in (1944)
Month to date precipitation 0.44  
Year to date precipitation 13.75  
Snow  
Snow 0.00 in - - ()
Month to date snowfall  
Since 1 July snowfall  
Since 1 September snowfall  
Snow Depth -    
Sea Level Pressure  
Sea Level Pressure 30.08 in    
Wind  
Wind Speed 9 mph (South)    
Max Wind Speed 15 mph    
Max Gust Speed -    
Visibility 10 miles    
Events      
T = Trace of Precipitation, MM = Missing Value Source: NWS Daily Summary

Daily Weather History Graph

Daily Weather History Graph

Search for Another Location

Airport or City:

Trip Planner

Search our weather history database for the weather conditions in past years. The results will help you decide how hot, cold, wet, or windy it might be!

Date:

Astronomy

Nov. 18, 2012 Rise Set
Actual Time 7:21 AM CST 5:48 PM CST
Civil Twilight 6:55 AM CST 6:14 PM CST
Nautical Twilight 6:25 AM CST 6:43 PM CST
Astronomical Twilight 5:56 AM CST 7:13 PM CST
Moon 11:53 AM CST (11/18) 11:04 PM CST (11/18)
Length of Visible Light 11h 19m
Length of Day
10h 26m
Waxing Crescent, 30% of the Moon is Illuminated
Nov 18
Waxing Crescent
Nov 20
First Quarter
Nov 28
Full
Dec 6
Last Quarter
Dec 13
New

Hourly Weather History & Observations

Time (CST) Temp. Dew Point Humidity Pressure Visibility Wind Dir Wind Speed Gust Speed Precip Events Conditions
12:53 AM 55.9 °F 43.0 °F 62% 30.08 in 10.0 mi South 10.4 mph - N/A   Clear
1:53 AM 54.0 °F 43.0 °F 66% 30.06 in 10.0 mi South 10.4 mph - N/A   Partly Cloudy
2:53 AM 53.1 °F 43.0 °F 69% 30.05 in 10.0 mi South 6.9 mph - N/A   Clear
3:53 AM 53.1 °F 43.0 °F 69% 30.05 in 10.0 mi South 6.9 mph - N/A   Clear
4:53 AM 53.1 °F 44.1 °F 71% 30.05 in 10.0 mi South 6.9 mph - N/A   Clear
5:53 AM 53.1 °F 44.1 °F 71% 30.05 in 10.0 mi South 10.4 mph - N/A   Clear
6:53 AM 53.1 °F 45.0 °F 74% 30.06 in 10.0 mi South 6.9 mph - N/A   Clear
7:53 AM 53.1 °F 45.0 °F 74% 30.07 in 10.0 mi South 10.4 mph - N/A   Partly Cloudy
8:53 AM 55.0 °F 46.0 °F 72% 30.07 in 10.0 mi South 10.4 mph - N/A   Mostly Cloudy
9:53 AM 55.0 °F 48.0 °F 77% 30.12 in 10.0 mi South 11.5 mph - 0.00 in   Overcast
10:53 AM 55.9 °F 48.9 °F 77% 30.11 in 10.0 mi South 8.1 mph - 0.00 in   Mostly Cloudy
11:53 AM 60.1 °F 50.0 °F 69% 30.11 in 10.0 mi SSW 12.7 mph - 0.00 in   Overcast
12:53 PM 63.0 °F 48.9 °F 60% 30.07 in 10.0 mi South 9.2 mph - N/A   Overcast
1:53 PM 64.0 °F 50.0 °F 60% 30.06 in 10.0 mi WSW 6.9 mph - N/A   Overcast
2:53 PM 64.0 °F 48.9 °F 58% 30.06 in 10.0 mi Variable 3.5 mph - N/A   Mostly Cloudy
3:53 PM 64.9 °F 48.9 °F 56% 30.07 in 10.0 mi Calm Calm - N/A   Mostly Cloudy
4:53 PM 64.9 °F 48.9 °F 56% 30.07 in 10.0 mi SSE 5.8 mph - N/A   Clear
5:53 PM 63.0 °F 48.9 °F 60% 30.08 in 10.0 mi South 4.6 mph - N/A   Partly Cloudy
6:53 PM 61.0 °F 48.9 °F 64% 30.10 in 10.0 mi South 10.4 mph - N/A   Clear
7:53 PM 59.0 °F 48.9 °F 69% 30.11 in 10.0 mi South 12.7 mph - N/A   Mostly Cloudy
8:53 PM 57.9 °F 48.9 °F 72% 30.11 in 10.0 mi South 12.7 mph - N/A   Clear
9:53 PM 57.0 °F 48.9 °F 74% 30.12 in 10.0 mi South 15.0 mph - N/A   Clear
10:53 PM 55.9 °F 50.0 °F 80% 30.12 in 10.0 mi South 10.4 mph - N/A   Clear
11:53 PM 55.0 °F 50.0 °F 83% 30.11 in 10.0 mi SSW 8.1 mph - N/A   Clear